Lapse_Rate
5.1 5.3 5.3 5.2 5.2 5.2 5.3 5.3 5.4 5.5 5.4 5.3 5.2 5.2 5.3 5.2 5.2 5.4 5.5 5.4 5.3 5.7 5.5 5.4 5.6 5.5 5.6 5.6 5.9 6.1 5.9 5.9 6.0 6.4 6.5 6.2 6.3 6.4 6.5 6.6 6.6 6.4 6.2 6.1 6.3
4.3 4.5 4.8 5.2 5.1 5.1 5.2 5.3 5.4 5.5 5.5 5.4 5.3 5.2 5.4 5.0 5.0 5.2 5.6 5.6 5.6 5.6 5.4 5.4 5.3 5.3 5.4 5.6 5.4 5.8 5.7 6.0 6.4 6.4 6.4 6.2 6.0 6.0 6.3 6.4 6.6 6.5 6.1 6.2 6.4
4.3 4.2 4.2 4.5 5.2 5.1 5.2 5.2 5.3 5.4 5.5 5.5 5.5 5.3 5.3 5.0 5.3 5.3 5.4 5.6 5.7 5.4 5.3 5.3 5.4 5.3 5.4 5.3 5.1 5.6 5.7 6.0 6.1 6.1 5.9 6.0 5.8 5.5 5.7 6.1 6.1 5.9 5.8 5.6 6.5
4.5 4.3 4.5 4.5 4.4 4.8 5.0 5.3 5.4 5.4 5.4 5.4 5.5 5.5 5.4 5.1 4.9 5.0 5.3 5.5 5.7 5.5 5.2 5.2 5.2 5.2 5.4 5.3 5.3 5.2 5.5 5.8 6.1 6.0 5.6 5.8 6.0 5.5 5.3 5.5 5.7 5.8 5.5 5.8 5.9
5.2 4.7 4.7 4.6 4.6 4.7 4.5 4.6 5.2 5.3 5.5 5.5 5.5 5.5 5.1 4.9 5.4 5.0 5.6 5.9 5.7 5.5 5.6 5.4 5.3 5.1 5.1 5.2 5.4 4.9 5.2 5.3 5.8 5.8 5.6 5.7 5.7 5.9 5.6 5.5 5.2 5.2 5.6 5.5 6.2
5.6 5.4 5.0 5.0 4.9 4.9 4.9 4.7 4.5 4.9 5.2 5.4 5.4 5.4 5.0 4.9 5.5 5.2 5.3 5.8 5.9 5.8 5.6 5.4 5.4 5.3 5.0 4.9 5.1 5.2 5.1 5.0 5.8 5.6 5.7 5.5 6.0 5.7 6.0 5.8 5.7 5.3 5.4 5.7 5.5
5.9 5.9 5.6 5.3 5.3 5.2 5.3 5.2 5.0 4.9 5.0 5.2 5.2 5.2 5.3 5.2 5.4 5.4 5.2 5.6 5.7 5.7 5.7 5.7 5.3 5.6 5.3 5.1 5.1 5.1 5.3 5.5 5.9 6.1 5.6 5.7 5.7 6.0 6.4 6.3 6.0 5.6 5.3 5.5 5.6
6.4 6.5 6.4 6.1 5.7 5.7 5.5 5.5 5.4 5.3 5.2 5.3 5.1 5.2 5.1 5.3 5.4 5.5 5.0 5.7 5.5 5.4 5.7 5.8 5.8 5.7 5.3 5.3 5.3 5.1 4.9 5.1 5.4 5.9 5.7 5.7 5.6 6.3 5.8 6.0 6.2 5.9 5.7 5.2 5.6
6.1 6.7 6.9 6.7 6.4 6.3 6.2 6.0 5.9 5.7 5.4 5.4 5.2 5.2 5.0 5.2 5.2 5.5 5.4 5.6 5.8 5.7 5.7 5.8 5.9 5.9 5.6 5.6 5.3 5.0 4.8 5.0 5.4 5.8 5.9 5.6 5.4 6.3 6.1 6.2 5.8 6.0 6.2 5.7 5.7
6.0 6.2 6.5 6.6 6.7 6.7 6.7 6.6 6.5 6.3 5.8 5.5 5.3 5.1 4.9 5.1 5.5 5.4 5.4 5.8 6.1 6.1 5.7 6.1 5.9 6.0 5.8 5.6 5.2 5.2 5.0 5.0 5.0 5.7 5.7 5.8 5.3 5.8 5.8 5.6 5.8 6.1 6.0 5.9 5.6
5.7 5.9 6.0 6.4 6.8 6.9 6.6 7.0 6.8 6.6 6.1 6.1 6.4 6.1 5.6 5.7 5.7 5.8 5.7 6.1 6.2 6.1 6.0 6.0 6.6 5.8 6.0 6.2 6.0 6.1 5.6 5.2 5.5 5.8 5.7 5.6 5.6 5.6 5.7 5.5 6.1 5.7 5.9 6.1 5.8
5.8 5.9 5.9 5.9 6.3 6.6 6.7 7.2 6.6 7.0 6.5 6.7 6.6 6.7 6.3 6.1 6.3 6.4 6.0 6.1 6.2 6.1 6.1 5.9 6.0 6.5 6.0 6.3 6.2 6.0 5.6 5.4 5.2 5.9 5.9 5.6 5.6 5.4 5.7 6.1 6.2 5.9 6.0 6.2 6.5
5.8 6.0 5.9 6.0 6.0 6.2 6.6 6.9 6.7 6.8 6.8 6.7 6.9 6.9 6.6 6.3 6.5 6.8 6.5 6.4 6.5 6.2 6.0 6.2 6.1 6.0 6.5 6.2 6.0 6.1 5.7 5.4 5.7 5.6 5.7 5.3 5.1 5.4 6.6 6.7 6.5 6.5 6.3 6.5 6.5
6.1 6.0 5.9 6.0 6.0 6.1 6.5 7.0 6.8 6.9 7.0 6.9 6.8 6.7 6.5 6.4 6.4 6.8 7.0 6.9 6.6 6.5 6.3 6.5 6.7 6.3 6.3 6.4 6.5 5.9 6.0 5.9 5.7 5.4 5.2 5.8 5.3 5.7 5.9 6.7 7.1 7.9 7.5 7.2 6.8
6.2 6.0 6.0 6.0 6.2 6.1 6.8 6.7 6.9 7.3 7.1 6.9 6.6 6.9 6.8 6.6 6.5 6.6 6.9 7.0 6.8 6.8 6.6 6.6 6.7 6.6 6.6 6.5 6.6 6.3 6.2 6.2 6.1 5.6 5.7 5.7 5.5 5.4 5.7 7.0 8.2 7.5 7.0 7.1 7.2
6.4 6.2 6.1 6.0 6.0 6.3 6.4 6.8 7.1 7.1 7.3 7.0 6.4 6.8 6.6 6.3 6.4 6.5 6.8 7.2 7.2 6.7 6.8 6.9 6.8 6.8 6.9 7.0 6.9 6.6 6.4 6.5 6.5 6.1 6.5 5.3 5.3 5.3 5.3 7.0 6.9 7.1 7.3 6.8 6.9
6.7 6.6 6.3 6.1 6.4 6.1 6.3 6.8 7.5 7.4 6.7 6.7 6.0 6.5 6.7 6.1 6.4 6.3 6.6 6.8 6.6 6.3 6.2 6.5 6.6 6.8 6.5 6.6 6.7 6.4 6.3 6.4 6.3 6.1 6.4 6.1 6.1 5.0 6.8 6.6 6.5 6.7 6.9 6.8 6.7
7.3 7.0 6.7 6.4 6.2 6.3 6.3 6.8 6.8 7.3 7.5 6.9 6.6 6.4 6.4 6.5 6.7 6.6 6.8 6.8 6.6 6.8 6.8 6.7 6.8 6.5 6.6 6.4 6.8 6.7 6.5 6.8 6.6 6.8 6.4 6.9 6.9 6.1 7.0 6.9 7.0 6.7 7.1 7.0 6.9
7.6 7.4 7.0 7.1 6.6 6.5 6.4 6.9 6.7 7.1 7.2 7.1 6.9 6.3 6.4 6.4 6.4 6.4 6.3 6.9 7.2 6.5 6.7 6.9 6.7 7.2 7.3 7.1 6.8 6.8 6.8 6.8 6.9 7.1 6.7 6.9 7.1 6.9 7.1 7.1 7.1 7.1 7.0 7.2 7.5
7.6 7.5 7.2 7.3 7.2 7.1 7.6 7.3 6.8 7.1 7.6 7.5 7.2 6.6 6.2 6.1 6.3 6.3 6.4 6.4 6.7 7.0 7.2 7.6 7.4 7.5 7.6 7.5 7.2 7.2 7.1 7.1 6.8 6.9 6.7 7.1 7.0 6.9 7.6 7.4 7.4 7.3 7.2 7.5 7.5
7.3 7.3 7.4 7.1 7.0 7.1 7.3 7.1 6.7 7.2 7.8 7.4 7.0 6.5 6.3 6.1 6.4 6.3 6.6 6.8 6.9 6.7 6.9 7.0 7.3 7.3 7.5 7.5 7.1 7.0 7.1 7.0 6.9 6.3 6.9 6.7 7.3 7.5 7.3 7.4 7.5 7.4 7.4 7.2 7.5
7.2 7.5 8.0 7.2 7.1 7.2 7.1 6.9 6.8 7.1 7.4 7.4 7.5 6.9 6.6 6.3 6.4 6.5 6.7 6.8 6.9 6.8 7.0 7.2 7.2 7.1 7.3 7.8 7.6 7.4 7.1 7.1 7.3 6.9 7.1 7.0 6.4 6.9 6.8 7.3 7.1 7.5 7.3 7.2 7.2
7.3 7.5 7.5 7.4 7.1 7.5 7.4 7.3 7.4 7.2 6.8 7.2 7.3 7.0 6.8 6.4 6.7 6.7 6.9 7.2 7.2 7.0 6.9 6.9 6.9 6.8 7.1 7.4 7.2 6.9 6.8 6.8 7.0 7.0 6.9 7.2 6.7 7.4 6.7 6.6 6.8 7.1 7.1 7.3 7.4
7.4 7.2 7.3 7.3 7.3 7.6 7.4 7.3 7.4 7.3 7.5 7.3 7.5 7.1 6.8 6.8 7.1 6.9 7.0 7.2 7.0 7.0 7.2 7.1 7.2 7.0 6.8 7.4 7.8 7.4 7.5 7.7 7.5 7.2 6.8 6.8 6.6 6.9 6.8 6.8 6.8 7.3 7.3 6.9 6.8
7.4 7.3 7.4 7.3 7.1 7.2 7.5 7.6 7.3 7.2 7.3 7.2 7.0 7.1 7.2 6.6 6.8 7.1 7.0 7.1 6.9 7.1 7.2 6.9 6.8 6.9 6.9 7.1 7.5 7.6 7.5 7.4 7.2 7.1 7.0 6.6 6.9 6.5 6.2 6.2 6.2 6.5 6.9 6.6 6.8
7.3 7.4 7.6 8.0 7.6 7.3 7.4 7.2 7.1 6.8 7.0 6.7 7.1 7.1 7.7 8.2 8.1 7.4 7.0 7.3 6.9 6.7 7.0 6.7 6.7 7.0 6.9 7.0 7.1 7.1 7.3 7.3 7.0 7.0 7.0 7.0 6.7 7.0 7.0 6.8 6.8 6.5 6.5 6.6 6.7
7.5 7.5 7.4 7.8 7.5 7.4 7.1 7.3 7.4 7.2 6.6 7.0 7.2 7.4 7.4 7.9 8.3 7.9 8.0 7.2 6.7 7.2 7.0 7.0 6.8 6.8 6.8 6.9 6.9 6.3 7.1 7.2 7.4 7.5 7.4 7.0 7.6 7.2 7.3 7.2 7.3 7.1 6.9 6.8 6.5
Wind_Speed
24 23 21 20 18 17 15 13 12 9 7 7 6 8 4 2 3 4 9 3 4 6 8 10 8 8 6 6 1 5 3 6 11 9 6 7 5 3 4 1 2 4 3 3 15
23 23 23 21 19 18 17 14 12 11 9 8 8 6 5 5 8 14 4 6 6 4 4 9 10 7 5 7 3 4 4 8 10 8 6 5 7 8 2 5 5 4 5 7 12
19 23 24 23 21 19 17 15 13 12 10 9 8 5 8 7 8 10 17 11 6 5 7 10 10 8 8 10 6 4 8 11 10 9 8 7 7 3 5 7 5 7 14 12 11
20 20 23 23 22 20 19 17 14 14 11 9 8 8 11 7 9 5 21 22 17 10 8 8 8 9 5 8 10 12 12 12 11 12 4 7 9 8 8 9 8 6 8 15 11
21 19 21 22 22 22 20 19 16 14 13 11 10 11 4 10 15 6 14 11 10 9 10 11 11 10 13 7 12 14 11 11 14 7 6 3 8 7 10 10 8 6 2 9 11
21 19 19 20 22 22 21 19 18 15 14 13 12 13 6 17 10 5 13 8 10 12 11 10 6 9 7 11 14 6 9 8 13 11 7 8 9 8 7 6 7 10 8 8 10
21 18 19 18 21 22 22 21 18 16 15 14 13 8 12 15 4 14 14 8 10 10 8 3 3 3 1 4 9 6 8 10 12 9 6 6 11 12 11 12 7 10 8 9 10
23 20 19 17 18 22 22 21 19 18 16 14 11 8 7 14 21 10 10 11 8 7 8 3 4 4 3 3 3 2 7 11 7 11 7 8 16 9 9 12 15 12 13 12 12
22 19 18 18 17 20 23 21 18 16 14 11 5 7 8 1 10 12 8 13 9 3 3 5 5 3 3 3 2 5 11 13 15 14 9 14 10 8 6 11 12 10 10 12 15
23 21 20 18 18 19 22 20 17 10 8 6 6 6 6 12 6 13 11 10 5 7 3 4 4 6 6 7 12 5 5 11 15 9 9 17 19 12 9 12 13 10 10 11 14
25 23 22 20 19 17 13 5 6 4 11 9 12 9 4 12 10 12 13 10 8 4 9 7 6 11 16 15 7 5 10 16 14 17 15 14 15 15 15 15 17 15 13 12 13
26 25 24 22 20 19 14 7 17 6 8 15 7 18 5 13 10 13 16 12 10 13 9 6 15 22 9 9 14 13 14 17 14 10 11 11 18 13 17 19 17 15 16 17 16
28 27 25 23 21 11 15 16 16 13 4 11 9 12 11 10 14 15 16 16 13 14 14 15 14 12 14 14 13 13 16 15 13 10 14 15 21 17 23 20 19 20 17 17 18
28 28 27 24 12 12 14 8 7 9 5 8 12 7 10 8 7 11 19 11 8 17 17 13 20 17 11 18 14 17 15 12 10 5 7 3 9 14 12 15 19 23 22 23 20
28 29 29 30 7 16 7 12 5 1 11 17 14 7 13 15 8 10 14 16 16 12 12 12 11 13 16 20 11 19 6 14 11 11 7 19 9 15 5 14 16 11 12 21 20
24 28 29 17 10 12 12 12 9 7 12 13 15 21 19 16 8 9 11 4 6 14 13 16 8 7 16 13 13 4 2 3 3 4 9 19 13 15 15 20 18 14 15 11 14
20 27 24 12 16 14 14 7 9 11 2 5 19 24 28 15 14 15 16 14 10 10 16 19 18 10 8 8 9 15 5 3 4 4 8 21 11 21 15 13 12 10 13 12 11
20 23 22 13 17 17 12 10 17 10 8 4 14 24 21 22 14 16 15 14 16 13 7 12 9 21 14 13 8 8 12 7 5 7 6 8 7 12 17 19 25 20 13 10 10
18 2 8 11 22 12 11 15 8 9 13 12 18 27 9 20 12 15 17 16 17 16 10 11 15 5 13 15 11 8 10 13 14 11 5 3 6 10 12 9 7 8 7 10 10
7 6 12 16 20 13 11 15 8 8 16 20 14 17 16 25 14 18 17 16 13 21 13 3 4 10 10 14 15 18 8 4 5 8 9 8 7 9 6 7 7 9 11 11 9
5 6 11 20 12 10 11 11 5 11 20 18 15 15 14 20 19 20 16 6 23 16 17 3 2 1 3 11 15 11 15 13 4 3 2 3 5 5 10 8 5 6 8 8 6
3 4 16 16 11 5 13 6 8 12 16 7 10 8 17 23 19 15 13 13 17 15 23 15 1 6 11 7 5 13 15 19 10 18 7 6 13 8 17 23 12 9 5 2 2
3 3 11 14 11 5 6 5 1 15 16 7 8 7 13 18 11 10 16 12 12 15 13 12 5 2 1 4 6 6 11 11 13 15 18 13 12 3 8 12 12 12 7 2 4
2 4 4 7 3 5 11 13 6 21 10 5 13 13 18 21 6 12 16 9 8 8 8 14 4 10 12 3 6 8 15 12 13 10 17 12 26 34 23 22 20 16 14 13 8
2 2 3 8 10 6 6 19 13 9 2 11 9 21 20 11 5 10 9 6 10 6 5 6 6 11 14 11 10 14 7 10 11 15 14 22 20 31 17 9 15 19 24 23 22
3 2 1 8 18 14 12 16 21 3 11 11 16 20 15 16 8 16 11 11 8 11 6 3 1 2 4 4 9 13 14 14 12 13 9 16 20 31 22 16 16 17 21 21 19
2 2 3 9 11 12 14 10 19 11 4 5 23 19 8 13 7 7 9 9 8 11 12 9 4 4 3 3 4 8 18 16 16 18 16 18 26 29 24 8 12 15 12 12 14
Wind_Direction
234 231 229 227 225 229 234 229 224 213 231 248 252 245 237 212 196 207 234 209 99 45 341 298 284 274 281 267 213 296 257 248 260 271 271 128 156 129 9 137 123 136 32 82 118
237 231 228 225 222 221 230 232 226 213 220 229 245 239 201 189 241 240 203 108 106 93 304 284 292 270 268 255 232 235 239 238 265 289 310 191 183 151 178 220 209 143 117 132 133
235 232 229 227 223 220 221 227 219 211 212 221 236 219 189 157 264 252 203 162 147 167 244 277 290 299 266 265 210 243 245 276 278 286 4 350 334 241 180 268 221 215 180 165 151
231 225 228 228 226 221 218 219 218 211 203 210 223 198 178 200 223 25 168 179 177 200 240 244 252 248 245 245 243 266 259 281 283 297 44 331 322 315 226 238 295 351 122 163 170
228 220 220 225 224 219 215 217 214 210 203 206 207 196 181 221 221 115 139 144 170 213 211 221 231 243 246 257 252 247 258 273 281 275 297 286 284 264 293 299 327 286 162 190 181
226 218 215 216 219 217 213 212 211 205 206 203 206 192 225 237 216 149 145 157 210 207 208 224 235 258 294 274 261 326 321 284 277 275 258 271 256 263 251 229 267 269 206 223 205
219 217 210 211 213 212 211 209 208 200 199 205 207 192 230 228 282 226 159 176 205 205 197 112 19 237 76 296 5 328 306 276 256 257 240 319 282 252 250 266 242 267 271 231 226
219 212 209 207 209 208 206 208 201 196 198 203 203 217 237 218 254 286 179 192 198 226 241 218 67 77 72 6 304 289 281 266 235 252 239 170 255 278 287 234 242 237 244 253 240
213 205 205 208 208 209 202 199 196 192 188 195 184 218 227 101 209 225 240 203 183 75 31 123 164 177 110 179 223 209 255 250 256 260 254 201 258 237 275 258 259 253 237 244 242
210 202 200 203 209 211 201 188 192 171 177 185 233 181 260 219 198 211 222 206 170 141 136 168 199 197 192 192 227 212 226 239 256 260 256 258 257 254 236 265 274 259 252 244 250
210 202 198 202 202 204 190 172 174 194 182 189 181 213 202 199 196 194 214 182 174 179 202 203 220 211 214 213 230 266 255 254 244 235 246 249 263 260 268 255 248 252 256 245 259
210 205 199 198 203 198 194 208 175 132 180 214 191 211 233 205 178 206 200 189 196 211 196 191 214 230 226 200 224 233 251 259 269 296 303 285 267 260 257 260 247 245 249 251 244
208 202 199 198 203 197 205 209 171 147 165 192 214 203 203 190 201 196 194 198 203 211 200 217 234 219 237 242 234 227 227 247 265 307 290 286 267 265 257 261 256 252 248 249 250
205 197 194 189 193 198 214 215 219 194 199 173 191 216 191 176 229 211 190 182 222 217 212 231 246 237 211 237 231 249 235 247 261 258 263 292 282 276 282 258 237 240 240 244 244
201 197 191 184 174 194 175 147 164 212 214 164 170 144 168 183 111 201 183 211 210 202 191 218 214 207 230 235 231 252 226 245 250 251 263 263 267 269 319 276 268 268 259 236 236
195 192 188 194 208 193 138 137 169 198 210 164 149 173 166 194 184 150 166 220 226 231 221 234 255 225 222 231 230 272 73 331 289 227 244 244 221 267 253 258 272 266 258 234 220
197 190 184 184 199 173 147 166 197 232 75 173 171 167 175 173 171 175 182 191 177 191 223 227 232 240 239 240 224 217 183 232 234 217 247 246 219 241 271 254 259 274 287 293 232
176 186 193 192 182 162 170 221 230 160 147 208 167 167 178 157 180 186 175 190 214 203 186 214 224 215 217 223 210 210 206 230 263 240 263 204 219 242 242 242 248 264 263 259 276
148 143 192 190 181 166 182 216 195 167 131 143 155 170 154 173 157 178 192 197 195 198 194 191 233 177 193 209 213 221 215 229 257 272 283 242 269 285 272 274 235 255 279 258 257
158 188 207 182 177 180 221 213 199 160 138 150 165 182 176 175 163 181 187 204 207 203 208 240 241 202 225 201 214 221 159 183 205 236 234 219 236 250 260 258 262 242 240 240 240
165 209 179 173 168 189 202 221 238 214 152 155 155 190 188 177 183 182 193 192 193 193 209 228 262 150 50 201 210 217 237 236 230 256 245 299 236 224 243 255 44 6 359 291 223
128 224 159 157 181 191 204 172 171 230 162 162 146 172 187 178 179 181 199 193 183 181 195 205 9 229 236 257 247 223 229 228 226 250 234 260 272 260 289 295 297 305 337 304 14
143 222 149 158 186 206 161 136 185 200 177 129 138 183 164 167 174 170 192 193 161 185 182 174 223 165 266 271 222 203 245 252 248 253 252 259 267 205 272 277 289 304 246 258 244
148 150 139 173 190 186 160 173 181 213 182 88 136 140 148 164 129 182 184 189 147 199 171 164 200 205 219 155 160 208 224 227 235 243 252 247 262 273 278 283 294 307 329 334 301
226 118 128 159 193 186 168 171 184 187 161 128 144 159 159 162 135 184 165 151 147 169 163 144 207 233 246 259 278 276 247 220 231 248 256 266 267 273 276 311 314 311 307 305 302
143 140 261 152 169 197 186 182 169 205 155 169 158 164 168 160 165 171 159 174 171 184 185 117 207 138 317 295 277 279 272 262 252 233 245 260 270 268 279 269 281 275 271 273 285
146 104 176 146 161 179 175 173 153 152 23 161 148 148 127 151 142 188 161 144 160 179 186 161 146 140 268 231 227 271 249 249 255 252 243 251 255 275 284 275 255 247 278 300 297